COSMOS 2251 DEB

Satellite information

Favourite Embed

Satellite Type and Status

DEBRISIN ORBIT

Key statistics

Satellite COSMOS 2251 DEB at a glance.

Uptime

11709

Days in orbit

Revolutions

≈ 14.5

Per day

Orbit

LEO

Low Earth Orbit

Inclination

74.0

Latest

Satellite identification and parameters

Extended collection of information and parameters for COSMOS 2251 DEB.

Object identification

Identified? True

Debris? True

Object name: COSMOS 2251 DEB

International designator: 1993-036BFK

Object number (NORAD): 37089

Object ID (CCSDS): 37089

Country: COMMONWEALTH OF INDEPENDENT STATES (CIS)

Current information (Y/N): Y

RCS size: SMALL

Orbital parameters

Period: 99.394 minutes

Inclination: 74.0387 deg

SMA: 7107.759 km

Apoapsis: 834.29 km

Periapsis: 624.958 km

RAAN: 90.9156 deg

Eccentricy: 0.0147256

Argument of periapsis: 230.7155 deg

Mean anomaly: 128.087 deg

Mean motion: 14.48784396 rev/day

Mean motion (dot): 0.00003364 rev/day2

B* drag term: 0.00078345 1/REarth

Two-line elements (TLE)

Creation date: July 3, 2025, 5:26 p.m.

Reference frame: TEME

Reference center: EARTH

Epoch: July 3, 2025, 10:03 a.m. UTC

TLE line 0: 0 COSMOS 2251 DEB

TLE line 1: 1 37089U 93036BFK 25184.41906924 .00003364 00000-0 78345-3 0 9999

TLE line 2: 2 37089 74.0387 90.9156 0147256 230.7155 128.0870 14.48784396637563

Live tracking on map

Real-time ground track for satellite COSMOS 2251 DEB.

In-orbit conjunctions

A list of the most updated potential collisions computed for object COSMOS 2251 DEB.

Target Orbit TCA Probability of collision Miss distance Type
SL-8 R/B LEO 2025-02-15 18:31:55 0.0002230515 603.0 (m) ROCKET BODY
FENGYUN 1C DEB SSO 2024-11-10 02:23:52 0.0003944061 471.0 (m) DEBRIS

Associated space launch

Military communications satellite. Destroyed in a collision with Iridium 33.

COSMOS 2251 DEB was lifted into orbit during the mission ‘Kosmos-3M | Strela-2M 51’, on board a Kosmos-3M space rocket.

The launch took place on June 16, 1993, 4:17 a.m. from 132/1 (132L).

For more information about the launch, click the button.

Launch to space Kosmos-3M | Strela-2M 51
Kosmos-3M | Strela-2M 51

Agency: N/A

Status: Launch Successful

Launch date: June 16, 1993, 4:17 a.m. UTC

Rocket: Kosmos-3M

Launch pad: 132/1 (132L)

Location: Plesetsk Cosmodrome, Russian Federation

...

Latest news about this satellite

There are no fresh news available about this satellite. Check back as we update our databases every day.


Newsletter sign-up

Weekly statistics, charts and insights to help you stay on top of the space industry.